Location: Eurasberg
(48.3353°N, 11.0839°E)
Time: 11:18:11
(UTC+00:00)

BREEZE-M DEB (TANK) - Pass Details

Date: 18 January 2026
Orbit: 313 x 11317 km, 49.7° (Epoch: 11 February)

Event Time Altitude Azimuth Distance (km) Brightness Sun altitude
Exits shadow 05:21:11 60° 276° (W) 367 2.1 -16.0°
Maximum altitude 05:21:31 84° 198° (SSW) 320 2.0 -15.9°
Drops below altitude 10° 05:23:53 10° 108° (ESE) 1,295 6.6 -15.5°
Sets 05:26:05 0° 107° (ESE) 2,425 8.5 -15.2°
